Amarillo, TX

4:38 AM CST on December 10, 2019 (GMT -0600)
Amarillo International

Weather History for KAMA - June, 2019

Change the Weather History Date:

Monday, June 10, 2019

  Actual Average Record
Temperature  
Mean Temperature 63 °F 73 °F  
Max Temperature 72 °F 86 °F 100 °F (1964)
Min Temperature 53 °F 60 °F 42 °F (1955)
Degree Days  
Heating Degree Days 2 0  
Month to date heating degree days 4 5  
Since 1 June heating degree days 4 5  
Since 1 July heating degree days 4106 4176  
Cooling Degree Days 0 8  
Month to date cooling degree days 44 72  
Year to date cooling degree days 106 197  
Since 1 June cooling degree days 44 72  
Growing Degree Days 12 (Base 50)    
Moisture  
Dew Point 41 °F    
Average Humidity 54    
Maximum Humidity 83    
Minimum Humidity 25    
Precipitation  
Precipitation 0.00 in 0.12 in 4.92 in (1984)
Month to date precipitation 2.50 1.16  
Year to date precipitation 10.28 7.52  
Snow  
Snow 0.00 in 0.00 in T in (1954)
Month to date snowfall 0.0 0.0  
Since 1 June snowfall 0.0 0.0  
Since 1 July snowfall 8.1 17.8  
Snow Depth 0.00 in    
Sea Level Pressure  
Sea Level Pressure 30.34 in    
Wind  
Wind Speed 10 mph (East)    
Max Wind Speed 18 mph    
Max Gust Speed 22 mph    
Visibility 10 miles    
Events      
T = Trace of Precipitation, MM = Missing Value Source: NWS Daily Summary

Daily Weather History Graph

Daily Weather History Graph

Search for Another Location

Airport or City:

Astronomy

Jun. 10, 2019 Rise Set
Actual Time 6:31 AM CDT 9:00 PM CDT
Civil Twilight 6:02 AM CDT 9:30 PM CDT
Nautical Twilight 5:25 AM CDT 10:07 PM CDT
Astronomical Twilight 4:45 AM CDT 10:47 PM CDT
Moon 2:11 PM CDT 2:25 AM CDT
Length of Visible Light 15h 28m
Length of Day
14h 29m
First Quarter, 55% of the Moon is Illuminated
Jun 10
First Quarter
Jun 17
Full
Jun 25
Last Quarter
Jul 2
New
Jul 9
First Quarter

Hourly Weather History & Observations

Time (CDT) Temp. Dew Point Humidity Pressure Visibility Wind Dir Wind Speed Gust Speed Precip Events Conditions
12:53 AM 57.0 °F 45.0 °F 64% 30.36 in 10.0 mi NNE 11.5 mph - N/A   Overcast
1:53 AM 55.9 °F 46.9 °F 72% 30.38 in 10.0 mi NNE 10.4 mph - N/A   Overcast
2:53 AM 55.0 °F 46.9 °F 74% 30.38 in 10.0 mi NNE 9.2 mph - N/A   Overcast
3:53 AM 54.0 °F 48.0 °F 80% 30.40 in 10.0 mi NNE 6.9 mph - N/A   Overcast
4:53 AM 55.0 °F 48.0 °F 77% 30.41 in 10.0 mi North 8.1 mph - N/A   Overcast
5:53 AM 55.0 °F 46.9 °F 74% 30.42 in 10.0 mi NNE 9.2 mph - N/A   Overcast
6:53 AM 54.0 °F 46.0 °F 75% 30.45 in 10.0 mi NE 8.1 mph - N/A   Overcast
7:53 AM 55.0 °F 46.0 °F 72% 30.45 in 10.0 mi NE 11.5 mph - N/A   Overcast
8:53 AM 57.0 °F 44.1 °F 62% 30.44 in 10.0 mi NE 15.0 mph - N/A   Overcast
9:53 AM 62.1 °F 41.0 °F 46% 30.43 in 10.0 mi ENE 11.5 mph - N/A   Mostly Cloudy
10:53 AM 64.0 °F 36.0 °F 35% 30.42 in 10.0 mi ENE 17.3 mph - N/A   Clear
11:53 AM 66.0 °F 37.9 °F 36% 30.41 in 10.0 mi ENE 13.8 mph 19.6 mph N/A   Clear
12:53 PM 68.0 °F 37.0 °F 32% 30.40 in 10.0 mi East 11.5 mph - N/A   Clear
1:53 PM 70.0 °F 37.9 °F 31% 30.37 in 10.0 mi Variable 5.8 mph - N/A   Mostly Cloudy
2:53 PM 71.1 °F 34.0 °F 26% 30.34 in 10.0 mi East 9.2 mph - N/A   Clear
3:53 PM 71.1 °F 36.0 °F 28% 30.30 in 10.0 mi SE 8.1 mph - N/A   Clear
4:53 PM 71.1 °F 36.0 °F 28% 30.28 in 10.0 mi SE 5.8 mph - N/A   Clear
5:53 PM 71.1 °F 35.1 °F 27% 30.25 in 10.0 mi SE 8.1 mph 17.3 mph N/A   Clear
6:53 PM 70.0 °F 35.1 °F 28% 30.22 in 10.0 mi SE 11.5 mph - N/A   Clear
7:53 PM 68.0 °F 37.9 °F 33% 30.22 in 10.0 mi SSE 10.4 mph - N/A   Clear
8:53 PM 64.9 °F 41.0 °F 42% 30.22 in 10.0 mi SSE 11.5 mph - N/A   Clear
9:53 PM 62.1 °F 41.0 °F 46% 30.20 in 10.0 mi SSE 11.5 mph - N/A   Clear
10:53 PM 60.1 °F 41.0 °F 49% 30.21 in 10.0 mi SSE 11.5 mph - N/A   Clear
11:53 PM 57.9 °F 42.1 °F 56% 30.20 in 10.0 mi SSE 10.4 mph - N/A   Clear